Green Bay, WI

5:03 AM CDT on May 27, 2017 (GMT -0500)
Austin Straubel International

Weather History for KGRB - January, 2013

Change the Weather History Date:

Monday, January 21, 2013

  Actual Average Record
Temperature  
Mean Temperature 0 °F 16 °F  
Max Temperature 6 °F 24 °F 49 °F (1934)
Min Temperature -6 °F 9 °F -36 °F (1888)
Degree Days  
Heating Degree Days 65 49  
Month to date heating degree days 937 1019  
Since 1 July heating degree days 3688 4109  
Cooling Degree Days 0 0  
Month to date cooling degree days 0 0  
Year to date cooling degree days 0 0  
Moisture  
Dew Point -13 °F    
Average Humidity 59    
Maximum Humidity 69    
Minimum Humidity 49    
Precipitation  
Precipitation 0.00 in 0.03 in 0.84 in (1917)
Month to date precipitation 0.55 0.79  
Year to date precipitation 0.55 0.79  
Snow  
Snow 0.00 in 0.40 in 9.00 in (1917)
Month to date snowfall 1.2 8.7  
Since 1 July snowfall 25.5 26.0  
Snow Depth T in    
Sea Level Pressure  
Sea Level Pressure 30.20 in    
Wind  
Wind Speed 16 mph (WNW)    
Max Wind Speed 26 mph    
Max Gust Speed 34 mph    
Visibility 10 miles    
Events      
T = Trace of Precipitation, MM = Missing Value Source: NWS Daily Summary

Daily Weather History Graph

Daily Weather History Graph

Search for Another Location

Airport or City:

Trip Planner

Search our weather history database for the weather conditions in past years. The results will help you decide how hot, cold, wet, or windy it might be!

Date:

Astronomy

Jan. 21, 2013 Rise Set
Actual Time 7:21 AM CST 4:46 PM CST
Civil Twilight 6:49 AM CST 5:18 PM CST
Nautical Twilight 6:13 AM CST 5:54 PM CST
Astronomical Twilight 5:39 AM CST 6:29 PM CST
Moon 12:25 PM CST (1/21) 2:49 AM CST (1/21)
Length of Visible Light 10h 29m
Length of Day
9h 25m
Waxing Gibbous, 75% of the Moon is Illuminated
Jan 21
Waxing Gibbous
Jan 26
Full
Feb 3
Last Quarter
Feb 10
New
Feb 17
First Quarter

Hourly Weather History & Observations

Time (CST) Temp. Windchill Dew Point Humidity Pressure Visibility Wind Dir Wind Speed Gust Speed Precip Events Conditions
12:53 AM 5.0 °F -14.2 °F -6.0 °F 61% 30.18 in 10.0 mi NW 17.3 mph - N/A   Overcast
1:53 AM 3.9 °F -10.4 °F -6.0 °F 64% 30.17 in 10.0 mi WNW 9.2 mph - N/A   Partly Cloudy
2:53 AM 3.0 °F -14.1 °F -7.1 °F 63% 30.16 in 10.0 mi WNW 12.7 mph - N/A   Partly Cloudy
3:53 AM 3.0 °F -13.3 °F -8.0 °F 60% 30.14 in 10.0 mi WNW 11.5 mph - N/A   Clear
4:53 AM 1.9 °F -15.5 °F -7.1 °F 66% 30.14 in 10.0 mi WNW 12.7 mph - N/A   Partly Cloudy
5:53 AM 1.9 °F -16.9 °F -7.1 °F 66% 30.14 in 10.0 mi WNW 15.0 mph - N/A   Clear
6:53 AM 1.0 °F -15.8 °F -8.0 °F 66% 30.14 in 10.0 mi NW 11.5 mph - N/A   Partly Cloudy
7:53 AM -0.0 °F -18.7 °F -11.0 °F 60% 30.15 in 10.0 mi WNW 13.8 mph 21.9 mph N/A   Clear
8:53 AM -0.0 °F -23.3 °F -11.9 °F 57% 30.17 in 10.0 mi WNW 23.0 mph 29.9 mph N/A   Clear
9:53 AM 1.0 °F -20.4 °F -11.9 °F 55% 30.19 in 10.0 mi WNW 19.6 mph 28.8 mph N/A   Clear
10:53 AM -0.0 °F -22.9 °F -14.1 °F 52% 30.18 in 10.0 mi West 21.9 mph 29.9 mph N/A   Clear
11:53 AM 1.0 °F -21.4 °F -14.1 °F 49% 30.17 in 10.0 mi WNW 21.9 mph 31.1 mph N/A   Clear
12:53 PM -0.0 °F -20.1 °F -14.1 °F 52% 30.17 in 10.0 mi WNW 16.1 mph 32.2 mph N/A   Partly Cloudy
1:53 PM -0.0 °F -21.8 °F -14.1 °F 52% 30.17 in 10.0 mi West 19.6 mph 31.1 mph N/A   Mostly Cloudy
2:53 PM -0.0 °F -22.4 °F -15.0 °F 49% 30.18 in 10.0 mi West 20.7 mph 28.8 mph N/A   Scattered Clouds
3:53 PM -0.9 °F -21.2 °F -15.0 °F 52% 30.20 in 10.0 mi WNW 16.1 mph - N/A   Overcast
4:53 PM -2.9 °F -24.4 °F -16.1 °F 54% 30.21 in 10.0 mi WNW 17.3 mph - N/A   Mostly Cloudy
5:53 PM -4.0 °F -24.5 °F -17.0 °F 54% 30.23 in 10.0 mi NW 15.0 mph - N/A   Partly Cloudy
6:53 PM -4.0 °F -21.2 °F -16.1 °F 56% 30.25 in 10.0 mi NW 10.4 mph - N/A   Clear
7:53 PM -5.1 °F -26.6 °F -18.9 °F 51% 30.27 in 10.0 mi NW 16.1 mph - N/A   Clear
8:53 PM -6.0 °F -24.6 °F -18.9 °F 54% 30.29 in 10.0 mi NW 11.5 mph - N/A   Clear
9:53 PM -6.0 °F -25.5 °F -18.9 °F 54% 30.29 in 10.0 mi WNW 12.7 mph - N/A   Clear
10:53 PM -6.0 °F -25.5 °F -18.0 °F 56% 30.30 in 10.0 mi WNW 12.7 mph - N/A   Clear
11:53 PM -6.0 °F -29.0 °F -17.0 °F 59% 30.28 in 10.0 mi WNW 18.4 mph - N/A   Clear